Torna al catalogo

COSMOS 1275 DEB

AttivoPO
NORAD 13462·DEBRIS·🇷🇺 Russia

Lanciato Jun 4, 1981 da Plesetsk Cosmodrome

Loading…

Prossimi Passaggi (prossime 24 ore)

TLE

AggiornatoSource: Space-Track

Epoca: Sep 13, 2026, 17:01 UTC

1 13462U 81053FJ  26256.70928775  .00000448  00000-0  43023-3 0  9990
2 13462  82.8166 339.4409 0162484 319.5524 166.0271 13.72823175199523

Traccia COSMOS 1275 DEB in tempo reale con AllMySat

Download on the App Store